GFSFLT2_con_lapse57_330.txt.gz
Lapse_Rate
4.3 4.3 4.3 4.3 4.3 4.3 4.4 4.4 4.5 4.5 4.5 4.6 4.6 4.7 4.8 5.0 5.1 5.1 5.2 5.3 5.4 5.4 5.6 5.8 6.0 6.0 5.9
3.7 3.8 3.9 3.9 3.9 4.0 4.1 4.1 4.1 4.1 4.2 4.3 4.4 4.5 4.5 4.6 4.7 4.8 5.0 5.0 5.0 5.1 5.3 5.4 5.5 5.7 5.8
3.3 3.4 3.5 3.6 3.7 3.7 3.6 3.7 3.9 3.9 3.9 3.9 4.0 4.0 4.2 4.4 4.5 4.6 4.7 4.7 4.7 4.8 4.9 5.0 5.2 5.4 5.4
3.3 3.3 3.3 3.4 3.6 3.7 3.7 3.7 3.6 3.7 3.6 3.7 3.7 3.8 4.0 4.2 4.2 4.4 4.6 4.6 4.7 4.7 4.8 4.8 4.9 5.1 5.1
3.6 3.6 3.4 3.5 3.6 3.8 3.8 3.8 3.8 3.9 3.9 4.0 4.0 3.8 3.9 4.1 4.1 4.3 4.4 4.5 4.6 4.7 4.6 4.6 4.6 4.7 4.8
4.0 4.0 3.9 3.9 3.8 3.9 4.0 4.1 4.1 3.9 4.3 4.2 4.3 4.3 4.2 4.1 4.1 4.1 4.1 4.2 4.4 4.4 4.4 4.5 4.6 4.6 4.5
4.2 4.1 4.0 3.9 4.0 3.9 4.0 4.2 4.0 4.0 4.1 4.2 4.0 4.1 4.1 4.1 4.1 4.0 4.2 4.3 4.4 4.4 4.5 4.6 4.6 4.6 4.7
4.3 4.3 4.3 4.2 4.1 4.1 4.0 4.0 3.9 3.8 4.1 4.3 4.0 3.8 3.7 3.7 3.7 3.8 3.9 3.9 4.1 4.3 4.5 4.6 4.8 4.8 4.8
4.4 4.5 4.5 4.4 4.2 4.0 3.9 3.9 3.8 3.8 3.5 3.6 3.6 3.9 3.9 3.9 3.4 3.3 3.4 3.4 3.5 3.7 3.9 4.1 4.2 4.3 4.5
4.8 4.7 4.4 4.3 4.1 4.0 3.9 3.8 3.6 3.7 3.6 3.5 3.5 3.4 3.7 3.9 3.6 3.5 3.4 3.2 3.2 3.3 3.5 3.7 3.7 3.8 4.2
4.7 4.6 4.4 4.2 4.1 3.9 3.9 3.8 3.9 3.9 3.7 3.5 3.6 3.4 3.2 3.4 3.9 3.6 3.6 3.6 3.4 3.2 3.1 3.0 3.1 3.3 3.6
4.5 4.4 4.3 4.2 4.1 4.0 3.9 3.9 3.9 3.7 3.7 3.6 3.6 3.4 3.5 3.7 3.8 4.0 3.9 3.8 3.7 3.6 3.4 3.3 3.1 3.0 3.0
4.7 4.5 4.3 4.2 4.0 4.2 3.9 3.7 3.7 3.5 3.5 3.5 3.5 3.5 3.6 3.7 3.8 4.0 4.0 4.2 4.0 3.9 3.9 3.8 3.9 3.9 3.7
4.4 4.4 4.3 4.2 4.0 3.9 3.9 3.7 3.5 3.6 3.4 3.4 3.5 3.5 3.5 3.6 3.5 3.7 3.9 4.0 4.2 4.2 4.1 4.1 4.1 4.1 4.1
4.1 4.1 4.0 3.9 3.9 3.8 3.8 3.7 3.7 3.7 3.8 3.7 3.5 3.4 3.5 3.5 3.7 3.8 3.8 3.9 4.2 4.3 4.2 4.2 4.3 4.2 4.1
3.9 3.8 3.9 3.9 3.8 3.8 3.8 3.7 3.7 3.7 3.8 3.9 4.0 3.9 3.7 3.7 3.6 3.6 3.7 4.0 4.2 4.1 4.1 4.1 4.4 4.5 4.4
3.7 3.8 3.9 3.9 3.9 3.9 3.8 3.8 3.8 3.9 4.0 4.1 4.2 4.2 4.1 4.1 4.3 4.1 4.1 4.4 4.1 4.1 4.1 4.1 4.1 4.9 4.5

GFSFLT2_con_lapse57_333.txt.gz
Lapse_Rate
4.5 4.5 4.6 4.6 4.6 4.6 4.5 4.5 4.4 4.5 4.5 4.7 4.9 5.0 5.0 5.2 5.2 5.3 5.3 5.3 5.3 5.4 5.5 5.5 5.7 5.7 5.7
4.2 4.2 4.2 4.2 4.2 4.2 4.3 4.2 4.2 4.3 4.3 4.4 4.5 4.5 4.6 4.7 4.8 4.8 5.0 4.9 5.0 5.1 5.2 5.3 5.4 5.5 5.5
3.7 3.8 3.9 3.9 3.9 3.9 3.8 3.8 3.9 3.9 4.0 4.0 4.0 4.0 4.0 4.1 4.2 4.4 4.6 4.7 4.6 4.6 4.7 4.9 5.1 5.3 5.4
3.3 3.3 3.3 3.5 3.6 3.6 3.6 3.5 3.4 3.4 3.4 3.5 3.6 3.6 3.6 3.7 3.8 3.7 3.8 4.1 4.3 4.3 4.4 4.5 4.6 4.8 4.9
3.5 3.4 3.4 3.5 3.5 3.6 3.6 3.6 3.8 3.7 3.6 3.7 3.6 3.4 3.4 3.5 3.6 3.6 3.7 3.8 3.9 4.0 4.1 4.1 4.2 4.3 4.5
4.1 4.1 3.9 3.9 3.8 3.9 3.9 4.0 3.9 3.7 3.9 3.8 3.9 3.8 3.9 3.9 3.8 4.0 3.9 3.8 3.9 4.0 4.2 4.2 4.2 4.2 4.3
4.6 4.4 4.4 4.4 4.4 4.2 4.2 4.2 4.2 4.1 4.1 4.3 4.1 4.1 4.3 4.2 4.1 4.1 4.2 4.2 4.2 4.2 4.2 4.2 4.3 4.3 4.3
4.9 4.7 4.7 4.6 4.5 4.5 4.5 4.4 4.5 4.5 4.5 4.5 4.3 4.1 4.1 4.1 4.1 4.1 4.2 4.2 4.1 4.1 4.3 4.4 4.4 4.3 4.2
4.7 4.8 4.8 4.8 4.7 4.6 4.6 4.6 4.6 4.5 4.2 4.3 4.3 4.4 4.4 4.2 3.8 3.7 3.7 3.7 3.7 3.8 3.9 4.1 4.2 4.3 4.4
5.0 5.1 5.0 4.9 4.8 4.7 4.8 4.6 4.5 4.5 4.6 4.4 4.4 4.2 4.3 4.2 3.9 3.7 3.6 3.4 3.4 3.4 3.4 3.5 3.7 3.9 4.1
5.3 5.2 5.1 5.1 5.1 4.8 4.7 4.6 4.5 4.5 4.4 4.3 4.4 4.2 4.0 4.2 4.5 4.1 3.9 3.9 3.7 3.5 3.3 3.1 3.2 3.2 3.4
5.1 5.0 4.8 4.7 4.6 4.5 4.4 4.4 4.4 4.4 4.1 4.1 4.3 3.9 4.0 4.1 4.1 4.2 4.1 4.0 3.9 3.9 3.7 3.6 3.4 3.4 3.3
4.8 4.9 4.8 4.6 4.3 4.3 4.2 4.0 3.9 3.9 3.9 3.9 3.9 3.7 3.8 3.9 4.0 4.1 4.2 4.3 4.2 4.1 4.0 4.1 4.1 3.9 3.8
4.7 4.6 4.5 4.5 4.4 4.2 4.2 4.1 3.9 3.8 3.8 3.7 3.6 3.5 3.6 3.7 3.7 3.8 4.0 4.1 4.2 4.2 4.2 4.2 4.1 4.1 4.1
4.5 4.4 4.3 4.3 4.4 4.2 4.1 4.0 3.9 4.0 4.0 3.9 3.6 3.6 3.6 3.7 3.8 4.0 4.0 4.0 4.1 4.3 4.2 4.3 4.4 4.4 4.4
4.2 4.2 4.2 4.2 4.1 4.1 4.1 4.1 4.1 4.2 4.1 4.1 4.0 3.7 3.5 3.6 3.6 3.7 3.7 3.9 4.2 4.2 4.2 4.3 4.6 4.8 4.6
4.1 4.0 4.0 3.9 3.8 3.8 3.9 3.9 4.0 4.0 4.0 4.0 4.0 3.9 3.9 3.9 4.1 3.9 3.8 4.1 4.0 4.0 4.0 4.1 4.2 4.8 4.7

GFSFLT2_con_lapse57_336.txt.gz
Lapse_Rate
4.5 4.5 4.5 4.6 4.6 4.5 4.5 4.5 4.5 4.6 4.6 4.6 4.7 4.8 4.9 4.9 5.0 5.0 5.0 5.0 5.1 5.3 5.4 5.6 5.7 5.8 5.7
4.2 4.3 4.3 4.3 4.3 4.4 4.4 4.4 4.4 4.4 4.3 4.4 4.4 4.4 4.5 4.6 4.6 4.7 4.9 4.7 4.9 5.2 5.3 5.2 5.3 5.5 5.5
4.1 4.1 4.2 4.2 4.2 4.2 4.2 4.2 4.1 4.1 4.1 4.0 4.0 4.0 4.0 4.1 4.2 4.2 4.4 4.6 4.5 4.6 4.8 4.9 5.0 5.1 5.2
3.7 3.6 3.6 3.7 3.6 3.6 3.7 3.6 3.6 3.6 3.6 3.5 3.5 3.5 3.6 3.6 3.6 3.6 3.7 3.8 4.0 4.1 4.3 4.4 4.5 4.6 4.7
3.6 3.5 3.5 3.5 3.4 3.4 3.4 3.5 3.5 3.4 3.4 3.5 3.4 3.2 3.2 3.2 3.3 3.3 3.4 3.3 3.4 3.6 3.7 3.7 3.8 3.9 4.0
3.5 3.5 3.4 3.4 3.4 3.5 3.6 3.5 3.5 3.5 3.5 3.5 3.7 3.6 3.6 3.6 3.6 3.5 3.5 3.5 3.5 3.7 3.7 3.7 3.7 3.7 3.8
3.7 3.7 3.8 3.7 3.7 3.7 3.7 3.8 3.8 3.8 4.1 4.1 3.9 4.0 4.1 4.2 4.1 4.1 4.1 4.1 4.1 3.9 3.8 3.8 3.9 3.9 3.8
4.4 4.3 4.2 4.2 4.1 4.2 4.3 4.3 4.4 4.4 4.4 4.7 4.4 4.4 4.4 4.4 4.3 4.3 4.4 4.4 4.4 4.3 4.3 4.3 4.3 4.4 4.3
4.6 4.7 4.7 4.6 4.5 4.5 4.7 4.5 4.7 4.7 4.6 4.8 4.8 4.8 4.7 4.7 4.5 4.4 4.3 4.3 4.4 4.4 4.5 4.5 4.5 4.4 4.5
5.3 5.4 5.4 5.4 5.2 5.0 4.9 4.9 4.7 4.9 4.9 4.8 4.7 4.6 4.8 4.8 4.6 4.4 4.3 4.1 4.0 3.9 4.0 4.1 4.1 4.3 4.5
5.8 5.7 5.7 5.6 5.5 5.3 5.1 5.0 5.1 5.1 4.8 4.6 4.8 4.6 4.5 4.7 4.8 4.6 4.4 4.3 4.2 4.2 4.0 3.8 3.7 3.8 4.1
5.6 5.5 5.4 5.3 5.3 5.2 5.2 5.1 5.1 4.9 4.6 4.4 4.5 4.5 4.3 4.4 4.5 4.5 4.4 4.3 4.2 4.2 4.2 4.2 4.1 3.9 3.7
5.5 5.4 5.4 5.4 5.1 4.9 4.9 4.7 4.7 4.7 4.5 4.4 4.2 4.2 4.0 4.1 4.2 4.2 4.2 4.3 4.3 4.2 4.2 4.3 4.4 4.3 4.3
5.3 5.1 4.9 4.7 4.7 4.7 4.6 4.4 4.2 4.3 4.2 4.0 4.0 3.9 3.8 3.7 3.7 3.8 3.9 4.0 4.3 4.2 4.2 4.3 4.2 4.1 4.1
5.3 5.1 5.0 4.8 4.6 4.4 4.4 4.3 4.1 3.9 4.1 4.0 3.9 3.8 3.8 3.7 3.6 3.8 4.0 4.0 4.0 4.0 4.1 4.2 4.3 4.3 4.2
5.2 5.0 4.8 4.6 4.5 4.3 4.1 4.0 4.0 4.0 3.9 4.1 3.9 3.8 3.8 3.8 3.8 4.0 3.9 3.8 4.1 4.2 4.2 4.1 4.4 4.6 4.5
5.0 4.8 4.6 4.3 4.1 4.1 4.0 4.0 3.9 3.8 3.9 3.9 3.9 3.9 3.9 3.9 4.2 3.7 3.9 4.2 4.0 4.1 4.1 4.1 4.1 4.6 4.6

GFSFLT2_con_lapse57_339.txt.gz
Lapse_Rate
4.3 4.3 4.3 4.3 4.3 4.4 4.4 4.5 4.6 4.6 4.6 4.6 4.6 4.7 4.7 4.8 4.8 4.9 4.9 4.9 4.9 5.0 5.2 5.3 5.4 5.5 5.4
4.2 4.1 4.2 4.2 4.2 4.3 4.3 4.4 4.4 4.4 4.5 4.6 4.6 4.6 4.6 4.6 4.7 4.8 4.8 4.8 4.9 5.0 5.0 4.8 5.0 5.2 5.2
4.2 4.2 4.2 4.2 4.2 4.1 4.1 4.1 4.0 4.0 4.1 4.1 4.1 4.1 4.2 4.2 4.3 4.4 4.5 4.6 4.6 4.5 4.5 4.7 4.8 4.9 4.9
4.0 4.0 4.0 4.0 4.0 4.1 4.1 4.0 4.0 4.0 3.9 3.9 3.9 3.8 3.7 3.8 3.6 3.6 3.8 3.9 4.0 4.1 4.2 4.2 4.4 4.5 4.6
3.8 3.7 3.7 3.7 3.7 3.7 3.8 3.8 4.0 4.0 3.9 3.8 3.7 3.5 3.6 3.6 3.5 3.4 3.3 3.4 3.5 3.5 3.6 3.7 3.8 3.9 4.0
3.7 3.7 3.7 3.7 3.7 3.8 3.8 3.8 3.8 3.8 3.8 3.6 3.7 3.8 3.6 3.6 3.6 3.4 3.4 3.4 3.4 3.4 3.4 3.5 3.5 3.6 3.7
3.8 3.7 3.7 3.7 3.8 3.8 3.7 3.8 3.8 3.8 3.7 4.1 3.5 3.5 3.6 3.6 3.7 3.6 3.6 3.6 3.6 3.6 3.6 3.7 3.8 3.8 3.8
4.0 4.0 3.9 3.9 3.9 3.9 3.9 3.9 3.9 3.9 3.8 4.0 4.2 4.0 3.9 3.9 4.0 4.0 4.0 4.1 4.2 4.1 4.1 4.2 4.2 4.2 4.1
4.3 4.4 4.6 4.5 4.3 4.2 4.3 4.0 4.3 4.4 4.5 4.4 4.8 4.6 4.4 4.4 4.4 4.4 4.5 4.4 4.4 4.4 4.5 4.4 4.5 4.6 4.6
4.8 4.9 4.8 4.9 5.0 4.8 4.8 4.9 4.8 5.0 5.0 4.7 4.7 4.9 5.0 5.1 5.0 4.9 4.7 4.6 4.5 4.4 4.4 4.5 4.7 4.9 5.0
5.7 5.8 5.9 5.9 5.9 5.9 5.7 5.5 5.5 5.5 5.4 5.0 5.2 5.3 5.1 5.2 5.3 5.2 5.1 4.7 4.6 4.6 4.6 4.7 4.7 4.6 4.9
6.4 6.3 6.3 6.2 6.1 6.0 5.9 5.7 5.6 5.6 5.4 5.1 5.1 4.8 4.9 5.1 5.0 4.9 5.0 4.8 4.7 4.8 4.7 4.7 4.6 4.6 4.5
6.4 6.4 6.2 6.1 6.0 5.9 5.8 5.6 5.5 5.4 5.2 5.1 4.9 4.7 4.5 4.6 4.7 4.6 4.4 4.5 4.4 4.3 4.3 4.3 4.5 4.5 4.6
6.1 6.0 6.0 5.9 5.8 5.5 5.4 5.2 5.2 5.2 4.9 4.6 4.4 4.4 4.5 4.3 4.1 4.3 4.3 4.2 4.0 4.0 4.1 4.3 4.3 4.2 4.2
6.0 6.1 6.0 5.9 5.8 5.5 5.3 5.0 4.8 4.7 4.5 4.4 4.2 4.0 3.9 3.9 3.9 3.8 3.9 3.9 4.0 3.9 3.9 3.9 4.1 4.1 4.1
6.1 6.0 6.0 5.9 5.7 5.3 5.0 4.8 4.7 4.6 4.4 4.2 3.9 3.8 3.7 3.8 3.7 3.7 3.7 3.8 3.9 3.9 4.0 4.0 4.1 4.4 4.3
6.0 5.8 5.6 5.5 5.2 5.0 4.7 4.5 4.3 4.1 3.9 3.8 3.7 3.6 3.5 3.4 3.4 3.7 3.8 3.8 3.7 3.8 3.9 4.0 4.0 4.4 4.6

GFSFLT2_con_lapse57_342.txt.gz
Lapse_Rate
4.5 4.4 4.4 4.4 4.4 4.4 4.4 4.5 4.5 4.5 4.5 4.5 4.4 4.4 4.5 4.5 4.6 4.6 4.7 4.8 5.0 5.1 5.1 5.1 5.1 5.2 5.3
4.5 4.4 4.4 4.3 4.3 4.2 4.2 4.2 4.3 4.3 4.3 4.4 4.4 4.4 4.4 4.6 4.7 4.7 4.7 4.7 4.6 4.7 4.8 4.9 5.0 4.9 4.9
4.1 4.2 4.3 4.4 4.3 4.4 4.4 4.3 4.3 4.3 4.3 4.2 4.2 4.3 4.4 4.4 4.5 4.5 4.6 4.7 4.6 4.5 4.5 4.6 4.7 4.7 4.7
4.4 4.4 4.4 4.4 4.4 4.4 4.3 4.3 4.3 4.3 4.2 4.2 4.3 4.2 4.1 4.2 4.3 4.3 4.3 4.3 4.4 4.5 4.4 4.3 4.3 4.3 4.3
4.2 4.3 4.2 4.2 4.2 4.2 4.2 4.2 4.2 4.2 4.1 4.1 4.1 4.0 4.0 4.0 3.9 3.9 4.0 4.0 4.1 4.1 4.2 4.2 4.1 4.1 4.2
4.1 4.0 4.1 4.2 4.3 4.3 4.2 4.2 4.2 3.9 4.1 4.0 3.9 4.0 3.9 3.7 3.9 3.9 3.7 3.7 3.6 3.6 3.6 3.7 3.8 3.8 3.8
4.2 4.2 4.2 4.3 4.3 4.3 4.3 4.2 4.2 4.1 4.1 4.3 4.1 3.9 3.9 4.1 4.0 3.9 3.8 3.6 3.7 3.6 3.6 3.6 3.6 3.7 3.8
4.5 4.4 4.4 4.3 4.3 4.3 4.2 4.1 4.1 4.1 4.0 4.2 4.4 4.3 4.1 3.9 4.0 4.0 3.9 4.0 3.7 3.8 3.8 3.8 3.8 3.8 3.8
4.2 4.2 4.2 4.2 4.0 4.0 3.9 3.8 4.3 4.4 4.2 3.9 4.3 4.7 4.6 4.5 4.4 4.4 4.4 4.2 4.2 4.1 4.0 4.0 3.9 4.0 4.1
4.4 4.5 4.6 4.7 4.7 4.6 4.7 4.9 4.8 5.0 5.1 4.7 4.8 4.6 5.1 5.3 5.1 4.6 4.4 4.3 4.3 4.2 4.2 4.2 4.1 4.2 4.3
5.3 5.5 5.5 5.6 5.8 5.8 5.7 5.7 5.8 5.7 5.6 5.8 5.9 5.8 5.5 5.7 6.1 6.0 5.8 5.5 5.4 5.1 4.8 4.8 4.7 4.6 4.8
6.2 6.3 6.2 6.2 6.2 6.3 6.3 6.2 6.2 6.1 6.0 5.8 5.9 5.7 5.6 5.9 6.0 5.8 5.5 5.4 5.4 5.2 5.0 4.9 4.9 4.9 4.9
6.0 6.0 6.0 6.1 6.1 6.1 6.0 5.9 6.0 6.0 5.8 5.6 5.4 5.3 5.1 5.3 5.3 5.3 5.2 5.2 4.9 4.9 4.6 4.5 4.6 4.7 4.8
5.9 6.0 6.0 5.9 5.9 5.8 5.8 5.7 5.7 5.8 5.5 5.3 5.2 4.9 5.0 4.8 4.6 4.8 4.6 4.6 4.4 4.3 4.1 4.3 4.3 4.2 4.2
5.8 5.9 6.0 6.0 5.9 5.9 5.9 5.9 5.9 5.9 5.9 5.5 5.1 4.8 4.6 4.3 4.3 4.2 4.1 4.0 3.7 3.6 3.8 3.9 4.0 4.0 3.9
6.0 5.9 5.9 6.0 6.1 6.1 6.0 5.9 5.9 5.8 5.6 5.3 5.0 4.8 4.6 4.5 4.0 3.9 3.6 3.4 3.4 3.2 3.3 3.4 3.6 3.8 3.9
5.9 5.9 5.9 6.0 6.0 6.0 5.8 5.6 5.5 5.3 5.1 4.9 4.6 4.3 4.2 4.1 4.2 3.9 3.3 3.4 3.4 3.4 3.4 3.4 3.3 3.6 3.8